Regional Weather Roundup
Issued by NWS

Home | Current Version | Previous Version | Graphics & Text | Print | Product List | Glossary On
Versions: 1 2 3 4 5 6 7 8 9 10 11 12 13 14 15 16 17 18 19 20 21 22 23 24 25 26 27 28 29 30 31 32 33 34 35 36 37 38 39 40 41 42 43 44 45 46 47 48 49 50
000
ASUS45 KTFX 181819
RWRMT
MONTANA HOURLY WEATHER ROUNDUP
NATIONAL WEATHER SERVICE GREAT FALLS MT
1119 AM MST THU DEC 18 2014

NOTE: "FAIR" INDICATES FEW OR NO CLOUDS BELOW 12000 FEET WITH NO
SIGNIFICANT WEATHER AND/OR OBSTRUCTIONS TO VISIBILITY.

* THESE STATIONS ARE NOT UNDER NWS QUALITY CONTROL. THEY DO NOT
   REPORT WEATHER SUCH AS PRECIPITATION OR FOG.

MTZ001>007-043-181900-
WEST OF THE DIVIDE
CITY           SKY/WX    TMP DP  RH WIND       PRES   REMARKS
KALISPELL      FOG       30  28  92 CALM      30.00S
MISSOULA       CLOUDY    30  27  89 CALM      30.04S
BUTTE          PTSUNNY   18  16  92 CALM      30.02R
MULLAN PASS    LGT SNOW  28  27  96 VRB6      29.94R VSB 3/4  WCI  21
* ANACONDA     CLOUDY    32  19  59 S13G21     N/A   WCI  22
* ESSEX        N/A       31  29  92 N/A        N/A
* EUREKA APT   PTCLDY    30  27  89 CALM      30.00S
* HAMILTON APT PTSUNNY   39  23  53 S13       30.01S WCI  31
* LINCOLN      N/A       24  21  88 N/A        N/A
* LOOKOUT PASS N/A       32  32 100 VRB2       N/A
* POLSON       N/A       32  30  92 SE1        N/A
* RONAN APT    PTSUNNY   32  30  92 N/A        N/A
* SEELEY LAKE  N/A       26  24  92 N/A        N/A
* THOMP F APT  CLOUDY    36  30  79 N/A        N/A
$$

MTZ008-052>055-181900-
SOUTHWEST MONTANA
CITY           SKY/WX    TMP DP  RH WIND       PRES   REMARKS
BOZEMAN        PTCLDY    25  18  75 S5        30.05S WCI  19
DILLON         PTCLDY    25  18  75 SW9       30.04S WCI  16
* W YELLOWSTON PTCLDY    21  16  81 N/A        N/A
* THREE FORKS  PTCLDY    25   0  33 N/A        N/A
* TWIN BRIDGES PTSUNNY   21  16  81 N/A        N/A
* BOULDER HILL N/A       26  15  63 SW13       N/A   WCI  15
* MONIDA PASS  N/A       22  21  96 SE14       N/A   WCI   9
* RAYNOLDS PAS N/A       20   4  50 S12        N/A   WCI   8
* WHITEHALL    N/A       26  18  72 W10G15     N/A   WCI  16
* WISE RIVER   N/A       13   8  80 NE2        N/A
$$

MTZ009>010-012-014-046-048-049-054-181900-
EAST SLOPES AND CENTRAL MONTANA
CITY           SKY/WX    TMP DP  RH WIND       PRES   REMARKS
CUT BANK       PTSUNNY   36  28  73 W13       29.87R WCI  27
GREAT FALLS    CLOUDY    37  25  62 S20       29.91R WCI  27
HELENA         PTSUNNY   27  23  85 CALM      30.03R
MALMSTROM AFB  CLOUDY    37  27  67 SW21      29.93S WCI  26
* CONRAD       PTSUNNY   28  27  96 CALM       N/A
* DEARBORN     N/A       38  22  53 S8G16      N/A   WCI  32
* EAST GLACIER N/A       33  29  85 W26G37     N/A   WCI  20
* MONARCH      N/A       34  17  50 S11G18     N/A   WCI  26
* PENDROY      N/A       36  27  70 SW6        N/A   WCI  31
* ROGERS PASS  N/A       29  24  82 SE11G24    N/A   WCI  19
* SWEET GRASS  N/A       34  32  92 SW13G18    N/A   WCI  25
* WHITE SULPH  N/A       36  20  52 S14G24     N/A   WCI  27
$$

MTZ011-013-016-021-035-040-045-047-050-051-181900-
NORTH CENTRAL MONTANA
CITY           SKY/WX    TMP DP  RH WIND       PRES   REMARKS
HAVRE          PTCLDY    25  21  85 SW7       29.92F WCI  17
LEWISTOWN      PTCLDY    43  27  53 W9        29.92S
* N BAR RANCH  CLOUDY    39  23  53 SW7       29.91F WCI  34
* CHINOOK      PTCLDY    21  19  92 CALM      29.94S VSB M1/4
* CHESTER      N/A       23  21  92 W1         N/A
* DENTON       N/A       42  22  45 SW6G13     N/A
* JUDITH GAP   N/A       38  20  48 W12G21     N/A   WCI  30
* LOMA         N/A       24  22  92 N/A        N/A
$$

MTZ017>020-022>027-061-062-181900-
NORTHEAST MONTANA
CITY           SKY/WX    TMP DP  RH WIND       PRES   REMARKS
GLASGOW        FOG       27  25  92 CALM      29.94F VSB 3
GLENDIVE       SUNNY     32  25  75 SW9       29.97F WCI  24
JORDAN         SUNNY     36  27  70 W7        29.93F WCI  30
SIDNEY         CLOUDY    27  21  78 CALM      30.00F
WOLF POINT     CLOUDY    28  25  89 CALM      29.97F
* BEAVER HILL  N/A       28  25  89 SW9        N/A   WCI  19
* CIRCLE       N/A       32  28  85 S3         N/A
* LINDSAY DVD  N/A       31  31 100 N/A        N/A
* NAVAJO       N/A       23  22  96 SW6        N/A   WCI  16
* PLENTYWOOD A PTCLDY    23  21  92 S7        29.95F VSB 3    WCI  15
* POPLAR APT   PTCLDY    27  25  92 S3        29.97F
* SACO         N/A       25  23  92 S8         N/A   WCI  16
$$

MTZ028>042-056>058-181900-
SOUTHCENTRAL AND SOUTHEAST MONTANA
CITY           SKY/WX    TMP DP  RH WIND       PRES   REMARKS
BAKER          CLOUDY    32  30  92 W9        29.97S WCI  24
BILLINGS       PTCLDY    32  21  64 SW21G28   29.98S WCI  20
LIVINGSTON     PTCLDY    39  18  43 SW20G31   29.98S WCI  29
MILES CITY     SUNNY     30  25  82 SW10      29.97F WCI  21
* FORSYTH APT  SUNNY     32  25  75 CALM      29.97F
* LAUREL APT   PTCLDY    34  16  48 S16G22     N/A   WCI  24
* ROUNDUP APT  PTCLDY    36  21  54 N/A        N/A
* ALZADA       N/A       29  28  96 N/A        N/A
* HYSHAM       N/A       31  16  54 W8         N/A   WCI  24
* LAME DEER    N/A       32  21  64 W11        N/A   WCI  23
* REED POINT   N/A       27  24  88 E3         N/A
* ROSCOE HILL  N/A       37   5  26 S13G31     N/A   WCI  29
$$

REGIONAL REPORTS...DAKOTAS
CITY           SKY/WX    TMP DP  RH WIND       PRES   REMARKS
WILLISTON      CLOUDY    25  19  78 S6        29.99F WCI  18
DICKINSON      FOG       28  25  89 SW5       29.95F WCI  22
BEACH          CLOUDY    28  28 100 SW8       29.97F WCI  20
CROSBY         CLOUDY    23  23 100 S8        29.98F WCI  14
TIOGA          FOG       19  19 100 S7        30.01F WCI  10
WATFORD CITY   FOG       23  23 100 SE6       29.97F WCI  16
BISMARCK       CLOUDY    21  19  92 S8        30.08F WCI  11
GRAND FORKS    CLOUDY    18  12  77 S9        30.23F WCI   7
FARGO          CLOUDY    18  12  77 S10       30.24F WCI   6
BUFFALO SD     PTCLDY    28  27  96 SW3       29.91S
RAPID CITY     SUNNY     28  25  89 VRB3      30.00F
$$

REGIONAL REPORTS...WYOMING/IDAHO/WASHINGTON
CITY           SKY/WX    TMP DP  RH WIND       PRES   REMARKS
GILLETTE       SUNNY     34  21  59 SW13      30.00S WCI  25
SHERIDAN       SUNNY     30  16  56 CALM      29.99F
CODY           SUNNY     37  18  46 SW7       30.00F WCI  32
YELLOWSTONE LA PTCLDY    23  16  74 VRB5      30.08R WCI  16
SALMON         CLOUDY    25  18  75 CALM      30.12F
MULLAN PASS    LGT SNOW  28  27  96 VRB6      29.94S VSB 3/4  WCI  21
SAND POINT     N/A       34  34 100 S3        30.02R
SPOKANE        FOG       36  36 100 SW7       30.00R VSB 1 1/2 WCI  30
$$

REGIONAL REPORTS...ALBERTA
CITY           SKY/WX    TMP DP  RH WIND       PRES   REMARKS
CALGARY        CLOUDY    32  21  64 SW3       29.80S
LETHBRIDGE     PTSUNNY   34  28  79 SW15      29.83S WCI  24
MEDICINE HAT   PTSUNNY   18  16  92 E2        29.87S
EDMONTON       FOG       14  12  92 SE2       29.83F
CARDSTON       N/A       34  27  76 W3         N/A
MILK RIVER     N/A       30  28  92 W6         N/A   WCI  24
$$

REGIONAL REPORTS...SASKATCHEWAN
CITY           SKY/WX    TMP DP  RH WIND       PRES   REMARKS
SWIFT CURRENT  SUNNY     23  23 100 SW12      29.85F WCI  11
MOOSE JAW      PTSUNNY   28  27  96 W12       29.91F WCI  18
REGINA         FOG       23  21  92 S8        29.94F WCI  14
VAL MARIE      N/A       23  21  92 SW1        N/A
ASSINIBOIA     N/A       25  23  92 W8         N/A   WCI  16
CORONACH       N/A       25  25 100 S7         N/A   WCI  17

$$



USA.gov is the U.S. government's official web portal to all federal, state and local government web resources and services.